This demonstration page uses our WeatherBlox Daily Observations layout. Learn more.

39.01783, -85.05884

Hourly Observations for July 12, 2019

Temp ( °F °C ) Dew Point ( °F °C ) Humidity (%) Winds ( mph kmh ) Pressure ( in mb ) Visibility ( mi km ) Precip ( " mm )
12:52 am 00:52 Clear 76 24.4 64 17.8 67 67 NNW 8 13 29.83 1010 10 16.09344 0 0
1:52 am 01:52 Clear 74 23.3 64 17.8 71 71 NNW 8 13 29.83 1010 10 16.09344 0 0
2:52 am 02:52 Clear 73 22.8 63 17.2 71 71 NNW 9 15 29.85 1011 10 16.09344 0 0
3:52 am 03:52 Clear 71 21.7 62 16.7 73 73 N 8 13 29.85 1011 10 16.09344 0 0
4:52 am 04:52 Clear 69 20.6 62 16.7 78 78 NNW 6 9 29.85 1011 10 16.09344 0 0
5:52 am 05:52 Mostly Clear 68 20 60 15.6 76 76 NNW 8 13 29.88 1012 10 16.09344 0 0
6:52 am 06:52 Sunny 67 19.4 59 15 76 76 NNW 5 7 29.88 1012 10 16.09344 0 0
7:52 am 07:52 Sunny 69 20.6 59 15 70 70 N 8 13 29.88 1012 10 16.09344 0 0
8:52 am 08:52 Sunny 71 21.7 60 15.6 68 68 NNW 6 9 29.91 1013 10 16.09344 0 0
9:52 am 09:52 Sunny 74 23.3 61 16.1 64 64 VRB 5 7 29.91 1013 10 16.09344 0 0
10:52 am 10:52 Sunny 78 25.6 59 15 52 52 NNW 8 13 29.91 1013 10 16.09344 0 0
11:52 am 11:52 Sunny 80 26.7 57 13.9 45 45 NW 7 11 29.91 1013 10 16.09344 0 0
12:52 pm 12:52 Sunny 82 27.8 60 15.6 47 47 WNW 5 7 29.91 1013 10 16.09344 0 0
1:52 pm 13:52 Sunny 84 28.9 59 15 43 43 NNW 8 13 29.91 1013 10 16.09344 0 0
2:52 pm 14:52 Sunny 86 30 58 14.4 39 39 VRB 5 7 29.91 1013 10 16.09344 0 0
3:52 pm 15:52 Sunny 86 30 58 14.4 39 39 WNW 8 13 29.91 1013 10 16.09344 0 0
4:52 pm 16:52 Sunny 88 31.1 57 13.9 35 35 NNW 8 13 29.91 1013 10 16.09344 0 0
5:52 pm 17:52 Sunny 86 30 58 14.4 39 39 NNW 7 11 29.88 1012 10 16.09344 0 0
6:52 pm 18:52 Sunny 86 30 57 13.9 37 37 NNW 8 13 29.88 1012 10 16.09344 0 0
7:52 pm 19:52 Sunny 84 28.9 57 13.9 40 40 NNW 9 15 29.91 1013 10 16.09344 0 0
8:52 pm 20:52 Sunny 80 26.7 56 13.3 44 44 NNW 8 13 29.91 1013 10 16.09344 0 0
9:52 pm 21:52 Clear 77 25 55 12.8 47 47 NNW 6 9 29.91 1013 10 16.09344 0 0
10:52 pm 22:52 Clear 75 23.9 54 12.2 48 48 NNW 5 7 29.94 1014 10 16.09344 0 0
11:52 pm 23:52 Clear 73 22.8 55 12.8 53 53 Calm 29.94 1014 10 16.09344 0 0

Powered by AerisWeather